Index of /pmb/codes/nwprod/ush

[ICO]NameLast modifiedSizeDescription

[DIR]Parent Directory  -  
[   ]SDM@t14a225-Aug-2013 01:32 0  
[TXT]rhist_savenwprod.sh13-Apr-2014 01:17 0  
[TXT]run_dcusgs.sh13-Aug-2013 01:22 362  
[   ]setup_hysplit26-Jul-2013 01:51 520  
[TXT]cdas_sigmatime.sh26-Jul-2013 01:51 523  
[   ]setup_hysplit_shift26-Jul-2013 01:51 666  
[TXT]global_enspqpf_24h_cmc.sh.gefs-031226-Jul-2013 01:51 690  
[TXT]update.log.sh26-Jul-2013 01:51 717  
[TXT]global_enspqpf_24h_cmc.sh26-Jul-2013 01:51 735  
[   ]setup_hysplit_wafs26-Jul-2013 01:51 736  
[TXT]global_enscvprcp.sh26-Jul-2013 01:51 740  
[TXT]sstoi_errwarn.sh26-Jul-2013 01:51 776  
[TXT]rcdas_prdgen.sh26-Jul-2013 01:51 781  
[TXT]sst2dvar_errwarn.sh26-Jul-2013 01:51 782  
[TXT]rtgssthr_errwarn.sh26-Jul-2013 01:51 786  
[TXT]global_ensprcpcv.sh26-Jul-2013 01:51 806  
[TXT]rtofs_abort.sh26-Jul-2013 01:51 823  
[TXT]verf_g2g_run_reflt.sh26-Jul-2013 01:51 843  
[TXT]cdas_pgb.sh26-Jul-2013 01:51 859  
[TXT]global_ensppf.sh26-Jul-2013 01:51 865  
[TXT]runstats_rsas.pl26-Jul-2013 01:51 881  
[TXT]cdas_sfc_daily.sh26-Jul-2013 01:51 883  
[TXT]rhist_errchk.sh05-Nov-2013 01:48 899  
[TXT]ofs_gribit.sh26-Jul-2013 01:51 912  
[TXT]global_ensadd.sh26-Jul-2013 01:51 970  
[TXT]global_ensrfmat.sh30-Aug-2013 01:45 1.0K 
[TXT]ukmet_gempak.sh26-Jul-2013 01:51 1.1K 
[TXT]rcdas_ieeetovs.sh26-Jul-2013 01:51 1.1K 
[TXT]verf_g2g_etop_get_radar.sh26-Jul-2013 01:51 1.2K 
[TXT]rtofs_date4restart.sh26-Jul-2013 01:51 1.2K 
[TXT]cdas_ssi.sh26-Jul-2013 01:51 1.2K 
[TXT]fnmocens_weights.sh26-Jul-2013 01:51 1.2K 
[TXT]cmce_weights.sh26-Jul-2013 01:51 1.3K 
[TXT]gefs_weights.sh26-Jul-2013 01:51 1.3K 
[TXT]ofs_ab2prof.sh26-Jul-2013 01:51 1.3K 
[TXT]101.sh26-Jul-2013 01:51 1.3K 
[TXT]run_dccrn.sh26-Jul-2013 01:51 1.3K 
[TXT]run_dcmap.sh26-Jul-2013 01:51 1.3K 
[TXT]run_dccoop.sh26-Jul-2013 01:51 1.3K 
[TXT]rhist_savenwtest.sh05-Nov-2013 01:49 1.3K 
[TXT]ecfjobs.sh26-Jul-2013 01:51 1.3K 
[TXT]nhc_psurge_slosh.sh26-Jul-2013 01:51 1.3K 
[TXT]tpc_psurge_slosh.sh20-Aug-2013 01:28 1.3K 
[TXT]run_dchydr.sh26-Jul-2013 01:51 1.4K 
[TXT]run_dcmeso.sh26-Jul-2013 01:51 1.4K 
[TXT]nam_ndaspost0.sh26-Jul-2013 01:51 1.4K 
[TXT]gfs_bfr2gpk.sh26-Jul-2013 01:51 1.4K 
[TXT]uv_index_3.sh11-Sep-2013 01:34 1.4K 
[TXT]nam_bfr2gpk.sh26-Jul-2013 01:51 1.4K 
[TXT]global_enscvt24h.sh26-Jul-2013 01:51 1.5K 
[   ]cwordsh26-Jul-2013 01:51 1.5K 
[TXT]ofs_latlon.sh26-Jul-2013 01:51 1.5K 
[TXT]move_file.sh28-Aug-2013 01:34 1.5K 
[TXT]global_enswgrp.sh26-Jul-2013 01:51 1.5K 
[TXT]wwgrib.pl26-Jul-2013 01:51 1.5K 
[TXT]nam_ndasbfr2gpk.sh26-Jul-2013 01:51 1.6K 
[TXT]nam_nawips_firewx.sh.hold26-Jul-2013 01:51 1.6K 
[TXT]listlapse.sh26-Jul-2013 01:51 1.6K 
[TXT]uv_index_6.sh11-Sep-2013 01:34 1.6K 
[TXT]uv_index_6.sh.test05-Nov-2013 01:49 1.6K 
[TXT]listadp.sh26-Jul-2013 01:51 1.6K 
[TXT]nam_nawips_firewx.sh26-Jul-2013 01:51 1.6K 
[TXT]cmcens_avgspr.sh26-Jul-2013 01:51 1.6K 
[TXT]nam_bfr2gpk_nest.sh26-Jul-2013 01:51 1.6K 
[TXT]listq.sh26-Jul-2013 01:51 1.6K 
[TXT]listacar.sh26-Jul-2013 01:51 1.6K 
[TXT]ofs_lowfreq_mean.sh26-Jul-2013 01:51 1.6K 
[TXT]rhist_savenwpara.sh05-Nov-2013 01:49 1.7K 
[TXT]listac.sh26-Jul-2013 01:51 1.7K 
[TXT]dgex_icwf.sh26-Jul-2013 01:51 1.7K 
[TXT]global_enssrbias.sh26-Jul-2013 01:51 1.7K 
[TXT]ofs_inova_v.sh26-Jul-2013 01:51 1.7K 
[TXT]rcdas_rot_vector.sh26-Jul-2013 01:51 1.7K 
[TXT]rhist_restrict.sh05-Nov-2013 01:48 1.7K 
[TXT]verf_g2g_fitsg2g.sh26-Jul-2013 01:51 1.8K 
[TXT]gfdl_pre_ocean_sortvit.sh26-Jul-2013 01:51 1.8K 
[TXT]ofs_correct_forcing.sh26-Jul-2013 01:51 1.8K 
[TXT]gfs_bufr.sh26-Jul-2013 01:51 1.9K 
[TXT]gfs_sndp.sh26-Jul-2013 01:51 1.9K 
[TXT]ingest_irwin.pl26-Jul-2013 01:51 1.9K 
[TXT]ofs_get_mobs.sh26-Jul-2013 01:51 1.9K 
[TXT]cdas_grtransm.sh26-Jul-2013 01:51 1.9K 
[TXT]global_enspqpf.sh26-Jul-2013 01:51 1.9K 
[TXT]ofs_get_sstsitu.sh26-Jul-2013 01:51 2.0K 
[TXT]ingest_delete-bad-dates.pl26-Jul-2013 01:51 2.0K 
[TXT]rtofs_atmforcing_correct.sh26-Jul-2013 01:51 2.0K 
[TXT]nam_getpcp_nam00z.sh26-Jul-2013 01:51 2.1K 
[TXT]ingest_namsst.sh26-Jul-2013 01:51 2.1K 
[TXT]ingest_fixslr.pl26-Jul-2013 01:51 2.1K 
[TXT]ofs_bias.sh26-Jul-2013 01:51 2.1K 
[TXT]nhc_psurge_nhctrk.sh26-Jul-2013 01:51 2.1K 
[TXT]tpc_psurge_nhctrk.sh20-Aug-2013 01:28 2.1K 
[TXT]radmon_getchgrp.pl26-Jul-2013 01:51 2.1K 
[TXT]cdas_model.sh26-Jul-2013 01:51 2.2K 
[TXT]ofs_z2layer.sh26-Jul-2013 01:51 2.2K 
[TXT]ofs_inova.sh26-Jul-2013 01:51 2.2K 
[TXT]rcdas_merge.sh26-Jul-2013 01:51 2.2K 
[TXT]bufr_remorest.sh26-Jul-2013 01:51 2.3K 
[TXT]nhc_psurge_blank.sh26-Jul-2013 01:51 2.3K 
[TXT]tpc_psurge_blank.sh20-Aug-2013 01:28 2.3K 
[TXT]rtofs_submit.sh26-Jul-2013 01:51 2.3K 
[TXT]ofs_get_sstgoes.sh26-Jul-2013 01:51 2.3K 
[TXT]cdas_mk_2d_3d.sh26-Jul-2013 01:51 2.3K 
[TXT]nam_namsndp_nest.sh26-Jul-2013 01:51 2.4K 
[TXT]uv_readpgb.sh11-Sep-2013 01:34 2.4K 
[TXT]prepobs_profcqc.sh26-Jul-2013 01:51 2.4K 
[TXT]uv_uvlist.sh11-Sep-2013 01:34 2.4K 
[TXT]ingest_getsxus72.pl26-Jul-2013 01:51 2.4K 
[TXT]ofs_grib_subdomain.sh26-Jul-2013 01:51 2.4K 
[TXT]ingest_cloud_NH.sh26-Jul-2013 01:51 2.4K 
[TXT]ofs_merge.sh26-Jul-2013 01:51 2.4K 
[TXT]ofs_boxqc.sh26-Jul-2013 01:51 2.4K 
[TXT]ccpa_copygb_pcp.sh26-Jul-2013 01:51 2.4K 
[TXT]ncoproc.sh26-Jul-2013 01:51 2.5K 
[TXT]ofs_boxqcv.sh26-Jul-2013 01:51 2.5K 
[TXT]ofs_adh.sh26-Jul-2013 01:51 2.5K 
[   ]setup_firewx26-Feb-2014 01:30 2.5K 
[TXT]global_ensstat_cmc.sh26-Jul-2013 01:51 2.5K 
[TXT]prepobs_cqcvad.sh26-Jul-2013 01:51 2.5K 
[TXT]cmce_bc_avgspr.sh26-Jul-2013 01:51 2.5K 
[TXT]ofs_merge_inova.sh26-Jul-2013 01:51 2.5K 
[TXT]ofs_get_sstnvh.sh26-Jul-2013 01:51 2.6K 
[TXT]ingest_smoke.sh26-Jul-2013 01:51 2.6K 
[TXT]global_enspvrfy.sh26-Jul-2013 01:51 2.6K 
[TXT]bufr_tranrad3.sh26-Jul-2013 01:51 2.6K 
[TXT]rtofs_glo2d_daily.sh26-Jul-2013 01:51 2.7K 
[TXT]ofs_spread.sh26-Jul-2013 01:51 2.7K 
[TXT]fnmocens_avgspr.sh26-Jul-2013 01:51 2.7K 
[TXT]verf_g2g_etop_radar.sh26-Jul-2013 01:51 2.7K 
[TXT]uv_uv24hr.sh11-Sep-2013 01:34 2.8K 
[TXT]gfs_transfer.sh26-Jul-2013 01:51 2.8K 
[TXT]rtofs_glo2d_3hrly.sh26-Jul-2013 01:51 2.8K 
[TXT]upaair.sh26-Jul-2013 01:51 2.8K 
[TXT]nam_ndaspost.sh26-Jul-2013 01:51 2.9K 
[TXT]fnmocens_bc_avgspr.sh26-Jul-2013 01:51 2.9K 
[TXT]vilst.sh26-Feb-2014 01:30 2.9K 
[TXT]sdmair.sh26-Jul-2013 01:51 2.9K 
[TXT]ingest_anyplot.pl26-Jul-2013 01:51 2.9K 
[TXT]gefs_climate_anomaly.sh26-Jul-2013 01:51 3.0K 
[TXT]naefs_climate_anv.sh26-Jul-2013 01:51 3.0K 
[TXT]ofs_create_river.sh26-Jul-2013 01:51 3.0K 
[TXT]cmce_climate_anomaly.sh26-Jul-2013 01:51 3.0K 
[TXT]ingest_avhrr.sh26-Jul-2013 01:51 3.1K 
[TXT]rtofs_atmforcing_extract.sh26-Jul-2013 01:51 3.1K 
[TXT]ingest_goes_ir.sh26-Jul-2013 01:51 3.1K 
[TXT]rtofs_glo3z_6hrly.sh26-Jul-2013 01:51 3.1K 
[TXT]fnmocens_climate_anomaly.sh26-Jul-2013 01:51 3.1K 
[TXT]gfs_stormsurge_poe.sh26-Jul-2013 01:51 3.1K 
[TXT]verf_g2g_get_cloud.sh26-Jul-2013 01:51 3.1K 
[TXT]prepobs_oiqcbufr.sh.org26-Jul-2013 01:51 3.2K 
[TXT]radmon_ck_stdout.sh26-Jul-2013 01:51 3.2K 
[TXT]ofs_get_altim.sh26-Jul-2013 01:51 3.2K 
[TXT]rtofs_choose_restart.sh26-Jul-2013 01:51 3.3K 
[TXT]cardinal.sh26-Jul-2013 01:51 3.3K 
[TXT]prepobs_oiqcbufr.sh26-Jul-2013 01:51 3.4K 
[TXT]syndataxtrack.sh26-Jul-2013 01:51 3.4K 
[TXT]verf_g2g_cloud.sh26-Jul-2013 01:51 3.4K 
[TXT]rtofs_atmforcing_stage.sh26-Jul-2013 01:51 3.5K 
[TXT]ofs_filenames.sh26-Jul-2013 01:51 3.5K 
[TXT]nhc_psurge_thresh.sh26-Jul-2013 01:51 3.5K 
[TXT]tpc_psurge_thresh.sh20-Aug-2013 01:28 3.5K 
[TXT]prepobs_cqcbufr.sh26-Jul-2013 01:51 3.5K 
[TXT]cdas_cycle.sh26-Jul-2013 01:51 3.7K 
[TXT]prepobs_prevents.sh26-Jul-2013 01:51 3.7K 
[TXT]nam_namsndp.sh26-Jul-2013 01:51 3.7K 
[TXT]rtofs_prestaging.sh19-Jun-2013 01:13 3.7K 
[TXT]global_postevents.sh26-Jul-2013 01:51 3.8K 
[TXT]gefs_transfer_gfs.sh26-Jul-2013 01:51 3.8K 
[TXT]edtlst.sh26-Feb-2014 01:30 3.9K 
[TXT]dvrtma_debias.sh26-Jul-2013 01:51 3.9K 
[TXT]nhc_psurge_exceed.sh26-Jul-2013 01:51 4.0K 
[TXT]tpc_psurge_exceed.sh20-Aug-2013 01:28 4.0K 
[   ]rcdas_template.para.tm00_f9026-Jul-2013 01:51 4.0K 
[   ]rcdas_template.para.tm12_f9026-Jul-2013 01:51 4.0K 
[   ]rcdas_template.para.tm09_f9026-Jul-2013 01:51 4.0K 
[   ]rcdas_template.para.tm03_f9026-Jul-2013 01:51 4.0K 
[   ]rcdas_template.para.tm06_f9026-Jul-2013 01:51 4.0K 
[TXT]rtofs_tmp2com.sh26-Jul-2013 01:51 4.1K 
[TXT]rtofs_atmforcing.sh26-Jul-2013 01:51 4.1K 
[TXT]nam_getpcp.sh.old041526-Jul-2013 01:51 4.1K 
[TXT]nam_getpcp.sh26-Jul-2013 01:51 4.1K 
[TXT]rhist_savehysplitsmoke.sh05-Nov-2013 01:49 4.1K 
[TXT]rtofs_glo3z_daily.sh26-Jul-2013 01:51 4.1K 
[TXT]rhist_savedir.sh05-Nov-2013 01:49 4.1K 
[TXT]verf_g2g_reflt_mosaic.sh26-Jul-2013 01:51 4.2K 
[TXT]cmce_adjust_wind10m.sh26-Jul-2013 01:51 4.2K 
[TXT]rhist_savearkvc2.sh05-Nov-2013 01:48 4.2K 
[TXT]rhist_savedecode.sh11-Sep-2013 01:34 4.2K 
[TXT]rhist_savecfsv1.sh05-Nov-2013 01:48 4.2K 
[TXT]ingest_clavr.sh28-Aug-2013 01:34 4.2K 
[TXT]ofs_seasforce3.sh26-Jul-2013 01:51 4.2K 
[TXT]rhist_savecyc.sh05-Nov-2013 01:49 4.2K 
[   ]cmce_adjust_wind10m.sh_2013031226-Jul-2013 01:51 4.2K 
[TXT]rhist_savehiresw.sh05-Nov-2013 01:49 4.3K 
[TXT]verf_g2g_reflt_mdl2wrf.sh26-Jul-2013 01:51 4.3K 
[TXT]nam_prdgen8.sh26-Jul-2013 01:51 4.3K 
[TXT]nam_prdgen8.sh.save042426-Jul-2013 01:51 4.3K 
[TXT]nam_prdgen6.sh26-Jul-2013 01:51 4.3K 
[TXT]nam_prdgen7.sh26-Jul-2013 01:51 4.4K 
[TXT]dgex_getgfsbc.sh26-Jul-2013 01:51 4.4K 
[TXT]nam_prdgen8.sh.save050326-Jul-2013 01:51 4.4K 
[TXT]global_anomcat.sh26-Jul-2013 01:51 4.5K 
[TXT]nam_prdgen8.sh.nocnvgrib26-Jul-2013 01:51 4.5K 
[TXT]rhist_savehref.sh05-Nov-2013 01:49 4.6K 
[TXT]rhist_savedcom.sh05-Nov-2013 01:49 4.7K 
[TXT]ingest_split_hadsxx.pl26-Jul-2013 01:51 4.7K 
[TXT]ingest_split_hads.pl26-Jul-2013 01:51 4.8K 
[TXT]glofs_sfcmarobs.sh26-Jul-2013 01:51 4.8K 
[TXT]rtofs_runstaging.sh26-Jul-2013 01:51 4.8K 
[TXT]ingest_cloud_NASA.sh26-Jul-2013 01:51 4.8K 
[TXT]rhist_saveradmon.sh05-Nov-2013 01:49 4.8K 
[TXT]rhist_saveekdmos.sh05-Nov-2013 01:49 4.8K 
[TXT]ofs_ssh_assim.sh26-Jul-2013 01:51 4.9K 
[TXT]gefs_transfer.sh26-Jul-2013 01:51 4.9K 
[TXT]ccpa_rfcqpe_adjust.sh26-Jul-2013 01:51 4.9K 
[TXT]bufrdumplist.pl26-Jul-2013 01:51 5.0K 
[TXT]rhist_saveestofs.sh05-Nov-2013 01:49 5.0K 
[TXT]nam_prdgen_nest.sh08-Jan-2014 01:30 5.1K 
[TXT]rhist_savevsdb_gridtobs.sh05-Nov-2013 01:49 5.1K 
[TXT]rhist_saveref.sh05-Nov-2013 01:49 5.1K 
[TXT]rhist_savewave.sh05-Nov-2013 01:49 5.2K 
[TXT]rhist_savercdas.sh05-Nov-2013 01:49 5.2K 
[TXT]rhist_savenfcens.sh05-Nov-2013 01:49 5.2K 
[   ]ingest_get.2013050926-Jul-2013 01:51 5.2K 
[TXT]rhist_savesrefges.sh05-Nov-2013 01:49 5.2K 
[TXT]rhist_saverap_p.sh05-Nov-2013 01:49 5.2K 
[TXT]rhist_savertofsetwpab.sh05-Nov-2013 01:49 5.3K 
[TXT]rhist_savesstoiqd.sh05-Nov-2013 01:49 5.3K 
[TXT]rhist_savertofsglobal.sh05-Nov-2013 01:49 5.3K 
[TXT]rhist_savelmp.sh05-Nov-2013 01:49 5.3K 
[TXT]rhist_savenaefs.sh05-Nov-2013 01:49 5.4K 
[   ]setup_hurricane25-Aug-2013 01:32 5.4K 
[TXT]sdmedit.sh26-Jul-2013 01:51 5.4K 
[TXT]dvrtma_debias_alaska.sh26-Jul-2013 01:51 5.4K 
[TXT]syndat_getjtbul.sh26-Jul-2013 01:51 5.4K 
[TXT]rhist_saveprecip.sh05-Nov-2013 01:49 5.4K 
[   ]dvrtma_debias_alaska.sh_2013061726-Jul-2013 01:51 5.4K 
[   ]ingest_uniq-final.awk26-Jul-2013 01:51 5.5K 
[TXT]sstoi_mkfossst.sh26-Jul-2013 01:51 5.5K 
[TXT]rhist_saveradar.sh05-Nov-2013 01:49 5.5K 
[TXT]rhist_savertofs.sh05-Nov-2013 01:49 5.5K 
[TXT]ingest_script_omi.sh26-Jul-2013 01:51 5.6K 
[TXT]rhist_saveruc.sh05-Nov-2013 01:49 5.6K 
[TXT]ingest_script_mls.sh26-Jul-2013 01:51 5.6K 
[TXT]rhist_saverap.sh05-Nov-2013 01:49 5.6K 
[TXT]ingest_transst_poes.sh26-Jul-2013 01:51 5.8K 
[TXT]radmon_verf_bcor.sh26-Jul-2013 01:51 5.8K 
[TXT]prepobs_prepacqc.sh26-Jul-2013 01:51 5.8K 
[TXT]ofs_sst_assim.sh26-Jul-2013 01:51 5.8K 
[TXT]radmon_verf_bcoef.sh26-Jul-2013 01:51 6.0K 
[TXT]rhist_savefnmocens.sh05-Nov-2013 01:49 6.0K 
[TXT]rhist_savendas.sh05-Nov-2013 01:49 6.0K 
[TXT]radmon_verf_angle.sh26-Jul-2013 01:51 6.1K 
[   ]setup_hysplit_wafs_script26-Feb-2014 01:30 6.2K 
[   ]ingest_get26-Jul-2013 01:51 6.2K 
[TXT]prepobs_syndata.sh26-Jul-2013 01:51 6.3K 
[TXT]ofs_minor_edit_restart.sh26-Jul-2013 01:51 6.4K 
[TXT]rhist_savecmcens.sh05-Nov-2013 01:49 6.5K 
[TXT]rcdas_post.sh26-Jul-2013 01:51 6.5K 
[TXT]rhist_saveaqm.sh05-Nov-2013 01:48 6.6K 
[TXT]ofs_edit_restart.sh26-Jul-2013 01:51 6.6K 
[TXT]cmce_adjust_tmaxmin.sh26-Jul-2013 01:51 6.6K 
[   ]cmce_adjust_tmaxmin.sh_2013031226-Jul-2013 01:51 6.6K 
[TXT]rhist_savertma.sh05-Nov-2013 01:49 6.7K 
[TXT]radmon_err_rpt.sh26-Jul-2013 01:51 7.1K 
[TXT]rhist_saveenkf.sh05-Nov-2013 01:49 7.2K 
[TXT]rhist_savesref.sh05-Nov-2013 01:49 7.2K 
[TXT]global_transfer.sh26-Jul-2013 01:51 7.2K 
[TXT]rhist_savegfs.sh05-Nov-2013 01:49 7.3K 
[TXT]ofs_ctd_assim.sh26-Jul-2013 01:51 7.4K 
[   ]dvrtma_debias_alaska_wind10m.sh_2013031226-Jul-2013 01:51 7.4K 
[TXT]ccpa_6h_to_3h.sh26-Jul-2013 01:51 7.5K 
[   ]dvrtma_debias_alaska_wind10m.sh_2013032726-Jul-2013 01:51 7.9K 
[   ]dvrtma_debias_alaska_wind10m.sh_2013061726-Jul-2013 01:51 7.9K 
[TXT]dvrtma_debias_alaska_wind10m.sh26-Jul-2013 01:51 8.0K 
[TXT]rhist_saveens.sh05-Nov-2013 01:49 8.0K 
[TXT]nam_h2obudget.sh27-Jul-2013 02:37 8.2K 
[TXT]ingest_sncvgrib96.sh26-Jul-2013 01:51 8.2K 
[TXT]ingest_sncvgrib.sh26-Jul-2013 01:51 8.2K 
[TXT]bufr_prepmods.sh26-Jul-2013 01:51 8.2K 
[   ]setup_hysplit_post_web_rsmc26-Feb-2014 01:30 8.3K 
[TXT]nam_prdgen3.sh26-Jul-2013 01:51 8.8K 
[TXT]ingest_snodepgr.sh26-Jul-2013 01:51 9.3K 
[TXT]global_postgp.sh26-Jul-2013 01:51 9.5K 
[TXT]nam_prdgen5.sh26-Jul-2013 01:51 9.5K 
[TXT]dashboard_pct.pl26-Jul-2013 01:51 10K 
[TXT]nam_prdgen1.sh26-Jul-2013 01:51 10K 
[TXT]rcdas_assim.sh26-Jul-2013 01:51 11K 
[TXT]nam_prdgen4.sh26-Jul-2013 01:51 11K 
[TXT]bufr_avgdata.sh26-Jul-2013 01:51 11K 
[TXT]gefs_prdgen_lowres.sh26-Jul-2013 01:51 11K 
[TXT]amsu_intensity.pl26-Jul-2013 01:51 12K 
[TXT]nam_prdgen2.sh26-Jul-2013 01:51 12K 
[TXT]dashboard_pct_model.pl21-Aug-2013 01:29 12K 
[TXT]dashboard_pct_model.pl.noearly26-Jul-2013 01:51 12K 
[TXT]wafs_blending.sh26-Jul-2013 01:51 12K 
[TXT]ingest_cloud_SH.sh26-Jul-2013 01:51 12K 
[TXT]dashboard_pct_model.pl.early21-Aug-2013 01:29 12K 
[TXT]sdmtwin_prodhist.sh26-Jul-2013 01:51 13K 
[   ]ingest_query.2013050926-Jul-2013 01:51 13K 
[TXT]gefs_prdgen.sh26-Jul-2013 01:51 13K 
[   ]ingest_process_onetype_newdays26-Jul-2013 01:51 13K 
[TXT]radmon_verf_time.sh26-Jul-2013 01:51 13K 
[   ]ingest_process_onetype_neworbits26-Jul-2013 01:51 13K 
[   ]ingest_query26-Jul-2013 01:51 14K 
[TXT]rhist_savenam.sh05-Nov-2013 01:49 14K 
[TXT]rhist_savenam.sh.hold05-Nov-2013 01:49 14K 
[   ]ingest_process_days26-Jul-2013 01:51 14K 
[TXT]syndat_qctropcy.sh07-Aug-2013 01:29 14K 
[   ]ingest_check_lapsed_data26-Jul-2013 01:51 14K 
[TXT]gefs_init_pair_combine.sh26-Jul-2013 01:51 14K 
[TXT]gefs_nceppost.sh.save052126-Jul-2013 01:51 14K 
[TXT]global_nceppost.sh26-Jul-2013 01:51 14K 
[TXT]gefs_nceppost.sh26-Jul-2013 01:51 14K 
[TXT]global_cycle.sh26-Jul-2013 01:51 15K 
[TXT]ingest_script_atovs1b.sh20-Feb-2013 01:17 15K 
[TXT]gfs_smartinitguam_on.sh26-Jul-2013 01:51 15K 
[TXT]global_nceppost_grb2.sh26-Jul-2013 01:51 15K 
[TXT]rcliper_plot.pl26-Jul-2013 01:51 16K 
[TXT]gfs_smartinitguam_off.sh26-Jul-2013 01:51 16K 
[TXT]rcliper_data.pl26-Jul-2013 01:51 17K 
[TXT]bufr_datacount.sh26-Jul-2013 01:51 17K 
[TXT]runstats.pl26-Jul-2013 01:51 17K 
[   ]ingest_translate_orbits26-Jul-2013 01:51 17K 
[TXT]global_satcount.sh26-Jul-2013 01:51 17K 
[TXT]rcliper_btk_data.pl26-Jul-2013 01:51 17K 
[   ]tranjb26-Jul-2013 01:51 18K 
[TXT]amsu_stormdata.pl26-Jul-2013 01:51 18K 
[TXT]naefs_bc_probability.sh26-Jul-2013 01:51 20K 
[   ]dumpmb26-Jul-2013 01:51 20K 
[TXT]global_chgres.sh26-Jul-2013 01:51 20K 
[TXT]runstats2html.pl20-Sep-2013 01:37 20K 
[TXT]gefs_init_pair_separate.sh26-Jul-2013 01:51 20K 
[   ]ingest_process_orbits26-Jul-2013 01:51 20K 
[TXT]rcliper_ascii2gem.pl26-Jul-2013 01:51 21K 
[TXT]runstats2html_table.pl17-May-2013 01:15 21K 
[   ]dvrtma_debias_alaska_tmaxmin.sh_2013031226-Jul-2013 01:51 22K 
[   ]dvrtma_debias_alaska_tmaxmin.sh_2013032726-Jul-2013 01:51 22K 
[   ]dvrtma_debias_alaska_tmaxmin.sh_2013061726-Jul-2013 01:51 22K 
[TXT]dvrtma_debias_alaska_tmaxmin.sh26-Jul-2013 01:51 22K 
[TXT]amsu_convertgfs.pl26-Jul-2013 01:51 22K 
[   ]nam_smartinit.sh.old26-Jul-2013 01:51 23K 
[TXT]nam_smartinit.sh.save070326-Jul-2013 01:51 23K 
[TXT]nam_smartinit.sh18-Sep-2013 01:44 24K 
[TXT]tropcy_relocate.sh.2013032126-Jul-2013 01:51 24K 
[TXT]tropcy_relocate.sh02-Aug-2013 01:40 25K 
[TXT]sdmedit_start.sh26-Jul-2013 01:51 25K 
[   ]setup_hysplit_shift_script26-Jul-2013 01:51 29K 
[TXT]verf_g2g_prepg2g.sh26-Jul-2013 01:51 33K 
[TXT]amsu_estimates.pl.0514201326-Jul-2013 01:51 34K 
[TXT]amsu_estimates.pl26-Jul-2013 01:51 34K 
[TXT]nhc_generalutils.pl26-Jul-2013 01:51 37K 
[TXT]tpc_generalutils.pl26-Jul-2013 01:51 37K 
[TXT]rcliper.pl26-Jul-2013 01:51 46K 
[TXT]tropcy_relocate_extrkr.sh.2013070326-Jul-2013 01:51 47K 
[TXT]tropcy_relocate_extrkr.sh21-Aug-2013 01:29 47K 
[TXT]nhc_atcfstorms.pl26-Jul-2013 01:51 50K 
[TXT]tpc_atcfstorms.pl26-Jul-2013 01:51 50K 
[   ]dumpjb.hold27-Feb-2014 01:58 74K 
[   ]dumpjb27-Feb-2014 01:58 74K 
[TXT]ofs_getges.sh26-Jul-2013 01:51 76K 
[TXT]rtofs_atmforcing_getges.sh26-Jul-2013 01:51 81K 
[TXT]prepobs_makeprepbufr.sh26-Jul-2013 01:51 101K 
[TXT]bufr_dump_obs.sh26-Jul-2013 01:51 124K 
[   ]setup_hysplit_script26-Jul-2013 01:51 152K